"Timestamp","TZ","WindDir_Mean (deg)","WindSpd_Mean (km/h)","WindSpd_Min (km/h)","WindSpd_Max (km/h)","Temp_Mean (deg)","RH_Mean (%)","MSLP_Mean (hPa)","Rain_Acc (mm)","Rain_Intensity (mm/h)","Hail_Acc (hits/cm2)","Hail_Intensity (hits/cm2hr)","Solar_Mean (W/m2)"
2018/10/03 00:00:00.003,n,199,1.8,1.08,2.16,15.5,67.8,1025.32,0,0,0,0,0.026093
2018/10/03 00:01:00.000,n,227,3.96,2.88,4.68,15.5,68,1025.32,0,0,0,0,0.028725
2018/10/03 00:02:00.000,n,290,0.36,0,0.72,15.5,68.4,1025.32,0,0,0,0,0.031319
2018/10/03 00:03:00.000,n,229,1.08,0.72,1.44,15.5,68.1,1025.32,0,0,0,0,0.029602
2018/10/03 00:04:00.000,n,187,3.6,2.88,4.32,15.5,67.9,1025.32,0,0,0,0,0.033951
2018/10/03 00:05:00.005,n,294,0.72,0.36,1.08,15.5,67.9,1025.32,0,0,0,0,0.027885
2018/10/03 00:06:00.003,n,289,0.72,0.36,1.08,15.5,68,1025.32,0,0,0,0,0.031319
2018/10/03 00:07:00.000,n,256,2.52,1.44,2.88,15.5,68,1025.32,0,0,0,0,0.026093
2018/10/03 00:08:00.012,n,184,1.44,1.08,1.8,15.5,68.4,1025.32,0,0,0,0,0.031319
2018/10/03 00:09:00.008,n,200,5.76,5.04,6.84,15.5,68,1025.22,0,0,0,0,0.029602
2018/10/03 00:10:00.000,n,80,0.72,0.36,1.8,15.4,68,1025.22,0,0,0,0,0.029602
2018/10/03 00:11:00.002,n,232,0.72,0,1.08,15.4,68.1,1025.22,0,0,0,0,0.02697
2018/10/03 00:12:00.000,n,271,3.24,2.88,3.96,15.4,68,1025.22,0,0,0,0,0.021744
2018/10/03 00:13:00.000,n,329,0.72,0.36,1.44,15.5,68.4,1025.22,0,0,0,0,0.024376
2018/10/03 00:14:00.000,n,150,1.08,0.36,1.44,15.5,68.1,1025.12,0,0,0,0,0.023499
2018/10/03 00:15:00.007,n,116,0.72,0.36,1.08,15.4,67.7,1025.12,0,0,0,0,0.024376
2018/10/03 00:16:00.004,n,205,1.44,0.72,1.8,15.4,67.8,1025.12,0,0,0,0,0.024376
2018/10/03 00:17:00.002,n,245,1.08,0.72,1.44,15.4,67.8,1025.12,0,0,0,0,0.022621
2018/10/03 00:18:00.015,n,265,3.24,2.88,3.6,15.4,68.1,1025.12,0,0,0,0,0.029602
2018/10/03 00:19:00.000,n,253,2.88,2.16,2.88,15.3,68.2,1025.12,0,0,0,0,0.032234
2018/10/03 00:20:00.000,n,189,3.24,2.52,4.32,15.3,68.2,1025.12,0,0,0,0,0.033989
2018/10/03 00:21:00.000,n,192,2.88,1.8,3.6,15.3,68.2,1025.12,0,0,0,0,0.035744
2018/10/03 00:22:00.004,n,239,2.52,1.8,2.88,15.2,68.4,1025.12,0,0,0,0,0.036583
2018/10/03 00:23:00.001,n,253,3.96,3.6,4.32,15.2,68.4,1025.12,0,0,0,0,0.038338
2018/10/03 00:24:00.000,n,277,3.6,2.52,3.96,15.2,68.9,1025.12,0,0,0,0,0.033112
2018/10/03 00:25:00.011,n,249,1.8,1.44,2.52,15.2,69,1025.12,0,0,0,0,0.030479
2018/10/03 00:26:00.008,n,254,1.44,0.72,2.52,15.2,69,1025.12,0,0,0,0,0.029602
2018/10/03 00:27:00.005,n,247,1.08,1.08,1.8,15.1,68.6,1025.12,0,0,0,0,0.030479
2018/10/03 00:28:00.000,n,320,0.72,0.36,1.08,15.1,69.1,1025.12,0,0,0,0,0.031395
2018/10/03 00:29:00.000,n,289,3.24,2.88,3.96,15.1,69.2,1025.12,0,0,0,0,0.029602
2018/10/03 00:30:00.000,n,120,0.36,0.36,0.72,15,69.1,1025.12,0,0,0,0,0.033989
2018/10/03 00:31:00.000,n,234,1.8,1.08,1.8,15,69.2,1025.12,0,0,0,0,0.033112
2018/10/03 00:32:00.006,n,337,3.96,2.88,4.68,15,69.4,1025.12,0,0,0,0,0.033989
2018/10/03 00:33:00.004,n,287,4.68,3.96,5.04,15,69.2,1025.12,0,0,0,0,0.028763
2018/10/03 00:34:00.002,n,228,1.8,1.8,2.16,15,69.2,1025.12,0,0,0,0,0.027046
2018/10/03 00:35:00.000,n,298,2.16,1.08,2.88,14.9,69.4,1025.12,0,0,0,0,0.028763
2018/10/03 00:36:00.012,n,275,1.8,1.44,2.16,14.9,69.7,1025.12,0,0,0,0,0.030479
2018/10/03 00:37:00.000,n,283,1.08,0.72,1.44,14.9,69.5,1025.12,0,0,0,0,0.029602
2018/10/03 00:38:00.000,n,95,2.88,2.16,3.24,14.9,69.7,1025.12,0,0,0,0,0.029602
2018/10/03 00:39:00.004,n,135,1.44,0.72,2.52,14.9,69.5,1025.12,0,0,0,0,0.029602
2018/10/03 00:40:00.001,n,181,1.8,0.72,2.52,14.9,69.7,1025.12,0,0,0,0,0.028763
2018/10/03 00:41:00.000,n,174,1.8,0.36,4.32,14.9,69.8,1025.12,0,0,0,0,0.033112
2018/10/03 00:42:00.000,n,138,2.52,2.16,2.88,14.9,69.8,1025.02,0,0,0,0,0.030479
2018/10/03 00:43:00.009,n,267,1.08,0.72,1.8,14.9,69.8,1025.02,0,0,0,0,0.024414
2018/10/03 00:44:00.007,n,255,0.72,0.72,1.08,14.9,69.7,1025.02,0,0,0,0,0.027046
2018/10/03 00:45:00.003,n,100,2.16,1.8,2.52,14.9,70,1025.02,0,0,0,0,0.026131
2018/10/03 00:46:00.000,n,125,2.16,1.8,2.16,14.9,70.1,1025.02,0,0,0,0,0.024414
2018/10/03 00:47:00.000,n,210,3.24,2.52,3.96,14.9,70,1025.02,0,0,0,0,0.021782
2018/10/03 00:48:00.000,n,259,1.08,1.08,1.44,14.9,70,1024.92,0,0,0,0,0.021782
2018/10/03 00:49:00.000,n,278,1.44,0.72,2.16,14.9,70.1,1024.92,0,0,0,0,0.021782
2018/10/03 00:50:00.006,n,72,1.08,0.72,1.44,14.9,70.3,1024.92,0,0,0,0,0.022659
2018/10/03 00:51:00.003,n,128,2.88,2.52,2.88,14.9,70.1,1024.92,0,0,0,0,0.025253
2018/10/03 00:52:00.000,n,316,0.72,0.36,1.08,14.9,70.3,1024.92,0,0,0,0,0.023537
2018/10/03 00:53:00.013,n,190,3.6,2.52,3.96,14.9,70.3,1024.82,0,0,0,0,0.021782
2018/10/03 00:54:00.010,n,165,3.6,2.88,3.96,14.9,70.3,1024.82,0,0,0,0,0.027885
2018/10/03 00:55:00.000,n,202,3.6,3.24,3.96,14.9,70,1024.72,0,0,0,0,0.024414
2018/10/03 00:56:00.003,n,244,3.96,3.24,3.96,14.8,70.1,1024.72,0,0,0,0,0.035706
2018/10/03 00:57:00.002,n,272,1.44,0.72,1.8,14.8,70.2,1024.72,0,0,0,0,0.02964
2018/10/03 00:58:00.000,n,115,1.08,0.72,1.8,14.8,70.2,1024.72,0,0,0,0,0.031357
2018/10/03 00:59:00.000,n,212,0.72,0.36,0.72,14.8,70.4,1024.72,0,0,0,0,0.034828
2018/10/03 01:00:00.000,n,295,1.08,0.72,1.44,14.8,70.3,1024.62,0,0,0,0,0.032234
2018/10/03 01:01:00.008,n,275,2.88,2.52,3.6,14.8,70.1,1024.62,0,0,0,0,0.02964
2018/10/03 01:02:00.005,n,235,1.8,1.44,2.16,14.8,70.2,1024.62,0,0,0,0,0.030479
2018/10/03 01:03:00.002,n,252,3.24,2.88,3.6,14.8,70.2,1024.62,0,0,0,0,0.030479
2018/10/03 01:04:00.000,n,169,2.16,1.8,2.52,14.8,70.3,1024.62,0,0,0,0,0.027008
2018/10/03 01:05:00.000,n,144,1.08,0.36,2.52,14.8,70.3,1024.62,0,0,0,0,0.033989
2018/10/03 01:06:00.000,n,114,0.36,0.36,0.72,14.8,70.3,1024.52,0,0,0,0,0.025253
2018/10/03 01:07:00.000,n,268,2.52,2.16,2.88,14.8,70.3,1024.52,0,0,0,0,0.028763
2018/10/03 01:08:00.004,n,147,1.08,0.36,1.8,14.8,70.3,1024.52,0,0,0,0,0.027847
2018/10/03 01:09:00.002,n,177,2.16,1.8,2.88,14.8,70.1,1024.52,0,0,0,0,0.030479
2018/10/03 01:10:00.000,n,115,0.36,0,0.72,14.8,70.2,1024.52,0,0,0,0,0.026131
2018/10/03 01:11:00.012,n,175,1.44,0.72,2.52,14.8,70.3,1024.52,0,0,0,0,0.027008
2018/10/03 01:12:00.009,n,126,2.88,2.88,3.24,14.8,70.3,1024.52,0,0,0,0,0.023499
2018/10/03 01:13:00.000,n,128,1.8,1.08,2.52,14.8,70.5,1024.52,0,0,0,0,0.02964
2018/10/03 01:14:00.002,n,109,0.72,0.36,1.44,14.8,70.5,1024.52,0,0,0,0,0.027008
2018/10/03 01:15:00.000,n,148,3.6,2.52,4.32,14.7,70.8,1024.52,0,0,0,0,0.026131
2018/10/03 01:16:00.000,n,182,1.44,0.36,2.52,14.7,70.9,1024.52,0,0,0,0,0.027847
2018/10/03 01:17:00.000,n,211,1.8,1.44,1.8,14.6,71.1,1024.52,0,0,0,0,0.025253
2018/10/03 01:18:00.009,n,159,1.8,1.8,2.16,14.6,71.2,1024.52,0,0,0,0,0.024414
2018/10/03 01:19:00.007,n,154,1.8,1.44,2.16,14.6,71.4,1024.42,0,0,0,0,0.024414
2018/10/03 01:20:00.004,n,189,2.16,1.08,2.52,14.6,71.7,1024.42,0,0,0,0,0.027008
2018/10/03 01:21:00.001,n,152,3.24,2.88,3.24,14.5,71.9,1024.42,0,0,0,0,0.028763
2018/10/03 01:22:00.000,n,169,1.44,1.44,1.8,14.5,72,1024.42,0,0,0,0,0.028763
2018/10/03 01:23:00.000,n,146,1.44,1.08,2.16,14.5,72.3,1024.42,0,0,0,0,0.026131
2018/10/03 01:24:00.000,n,205,1.08,0.72,1.08,14.5,72.3,1024.42,0,0,0,0,0.023499
2018/10/03 01:25:00.000,n,154,1.44,0,2.52,14.5,72.4,1024.42,0,0,0,0,0.023499
2018/10/03 01:26:00.004,n,152,2.52,1.44,2.88,14.5,72.2,1024.32,0,0,0,0,0.021782
2018/10/03 01:27:00.001,n,212,1.8,0.72,2.52,14.5,72.4,1024.32,0,0,0,0,0.020905
2018/10/03 01:28:00.001,n,167,1.8,1.44,2.52,14.4,72.3,1024.32,0,0,0,0,0.023499
2018/10/03 01:29:00.014,n,156,2.88,2.52,2.88,14.4,72.3,1024.32,0,0,0,0,0.021782
2018/10/03 01:30:00.012,n,236,2.16,1.8,2.52,14.4,72.3,1024.32,0,0,0,0,0.027885
2018/10/03 01:31:00.000,n,163,1.08,0.72,1.08,14.4,72.6,1024.32,0,0,0,0,0.026131
2018/10/03 01:32:00.002,n,115,0.72,0.36,1.08,14.4,72.6,1024.32,0,0,0,0,0.025253
2018/10/03 01:33:00.000,n,239,2.52,1.8,2.88,14.4,72.4,1024.32,0,0,0,0,0.026131
2018/10/03 01:34:00.000,n,150,2.16,2.16,2.52,14.4,72.5,1024.32,0,0,0,0,0.027008
2018/10/03 01:35:00.000,n,137,1.08,0.36,1.8,14.4,72.6,1024.32,0,0,0,0,0.025253
2018/10/03 01:36:00.006,n,123,1.44,0.72,1.8,14.4,72.4,1024.22,0,0,0,0,0.023537
2018/10/03 01:37:00.003,n,182,0.72,0.36,2.16,14.4,72.5,1024.22,0,0,0,0,0.026131
2018/10/03 01:38:00.000,n,151,2.16,1.8,2.52,14.3,72.5,1024.22,0,0,0,0,0.027885
2018/10/03 01:39:00.013,n,158,2.52,0.72,3.96,14.3,72.4,1024.22,0,0,0,0,0.027885
2018/10/03 01:40:00.000,n,271,3.24,3.24,3.96,14.3,72.2,1024.22,0,0,0,0,0.027008
2018/10/03 01:41:00.000,n,239,2.16,1.44,2.52,14.3,72.3,1024.22,0,0,0,0,0.028725
2018/10/03 01:42:00.000,n,225,1.08,1.08,1.44,14.3,72.2,1024.22,0,0,0,0,0.027008
2018/10/03 01:43:00.003,n,109,1.8,0.72,2.88,14.3,72.4,1024.12,0,0,0,0,0.026131
2018/10/03 01:44:00.001,n,174,2.88,2.16,3.24,14.3,72.4,1024.12,0,0,0,0,0.027008
2018/10/03 01:45:00.000,n,15,1.08,0.72,1.08,14.3,72.4,1024.12,0,0,0,0,0.027008
2018/10/03 01:46:00.011,n,139,2.16,1.8,2.52,14.3,72.5,1024.12,0,0,0,0,0.024376
2018/10/03 01:47:00.009,n,135,2.16,1.44,2.88,14.3,72.4,1024.12,0,0,0,0,0.023537
2018/10/03 01:48:00.005,n,149,3.6,3.6,3.6,14.3,72.5,1024.12,0,0,0,0,0.025253
2018/10/03 01:49:00.002,n,156,3.6,3.24,3.6,14.3,72.7,1024.02,0,0,0,0,0.028725
2018/10/03 01:50:00.000,n,147,2.16,1.08,3.24,14.2,73,1024.02,0,0,0,0,0.025253
2018/10/03 01:51:00.000,n,0,0.72,0.36,0.72,14.2,73.3,1024.02,0,0,0,0,0.028725
2018/10/03 01:52:00.000,n,172,1.8,1.8,2.16,14.2,73.5,1024.02,0,0,0,0,0.030479
2018/10/03 01:53:00.008,n,183,2.88,2.88,3.24,14.2,73.6,1024.02,0,0,0,0,0.023537
2018/10/03 01:54:00.005,n,223,1.8,1.08,2.52,14.2,73.9,1024.02,0,0,0,0,0.022659
2018/10/03 01:55:00.002,n,227,1.44,1.08,1.8,14.2,73.6,1023.92,0,0,0,0,0.021782
2018/10/03 01:56:00.000,n,232,1.44,1.08,1.8,14.2,73.5,1023.92,0,0,0,0,0.020905
2018/10/03 01:57:00.013,n,186,2.88,2.52,3.24,14.2,73.7,1023.92,0,0,0,0,0.027885
2018/10/03 01:58:00.000,n,227,1.44,1.08,2.16,14.2,73.6,1023.92,0,0,0,0,0.020905
2018/10/03 01:59:00.000,n,255,2.88,2.52,3.24,14.2,73.6,1023.92,0,0,0,0,0.030479
2018/10/03 02:00:00.002,n,224,0.36,0,0.72,14.2,73.9,1023.92,0,0,0,0,0.035667
2018/10/03 02:01:00.000,n,189,0.72,0.36,1.44,14.2,73.5,1023.92,0,0,0,0,0.033112
2018/10/03 02:02:00.000,n,124,1.44,0.72,2.52,14.2,73.5,1023.92,0,0,0,0,0.041809
2018/10/03 02:03:00.000,n,151,4.32,4.32,5.4,14.1,73.3,1023.82,0,0,0,0,0.040054
2018/10/03 02:04:00.008,n,189,3.6,3.24,3.96,14.1,73.5,1023.82,0,0,0,0,0.033951
2018/10/03 02:05:00.005,n,213,2.16,1.8,2.52,14.1,73.6,1023.72,0,0,0,0,0.036583
2018/10/03 02:06:00.002,n,261,1.08,0.72,1.08,14.1,73.5,1023.72,0,0,0,0,0.033112
2018/10/03 02:07:00.000,n,155,1.8,1.08,2.52,14,73.6,1023.72,0,0,0,0,0.033112
2018/10/03 02:08:00.000,n,106,0.72,0.36,1.08,14,73.8,1023.72,0,0,0,0,0.031319
2018/10/03 02:09:00.000,n,263,0.72,0.72,0.72,14,73.8,1023.72,0,0,0,0,0.029602
2018/10/03 02:10:00.006,n,175,2.16,1.44,2.88,14,73.9,1023.72,0,0,0,0,0.028725
2018/10/03 02:11:00.002,n,301,0.72,0.36,1.44,14,73.9,1023.72,0,0,0,0,0.029602
2018/10/03 02:12:00.001,n,111,0.72,0.36,1.08,14,73.9,1023.72,0,0,0,0,0.036583
2018/10/03 02:13:00.000,n,115,1.8,0.72,2.52,14,74,1023.72,0,0,0,0,0.029602
2018/10/03 02:14:00.011,n,140,2.16,1.8,2.52,14,74.1,1023.72,0,0,0,0,0.032234
2018/10/03 02:15:00.007,n,197,0.36,0.36,1.44,14,74.3,1023.72,0,0,0,0,0.02697
2018/10/03 02:16:00.000,n,291,0.36,0.36,0.72,14,74.3,1023.72,0,0,0,0,0.028725
2018/10/03 02:17:00.001,n,248,0.72,0,0.72,14,74.3,1023.72,0,0,0,0,0.02697
2018/10/03 02:18:00.000,n,135,1.44,1.08,2.16,14,74.4,1023.72,0,0,0,0,0.030479
2018/10/03 02:19:00.000,n,140,1.08,0.72,1.44,14,74.3,1023.72,0,0,0,0,0.028725
2018/10/03 02:20:00.000,n,150,2.52,2.16,2.52,14,74.2,1023.72,0,0,0,0,0.031319
2018/10/03 02:21:00.008,n,123,2.16,1.8,2.16,14,74.2,1023.72,0,0,0,0,0.032234
2018/10/03 02:22:00.005,n,165,1.8,1.44,2.16,13.9,74.3,1023.72,0,0,0,0,0.026131
2018/10/03 02:23:00.003,n,134,2.88,2.16,3.6,13.9,74.3,1023.72,0,0,0,0,0.025253
2018/10/03 02:24:00.015,n,155,3.24,2.88,3.6,13.9,74.3,1023.72,0,0,0,0,0.027847
2018/10/03 02:25:00.000,n,161,2.52,2.16,3.24,13.9,74.4,1023.72,0,0,0,0,0.027847
2018/10/03 02:26:00.000,n,174,2.16,0.72,3.24,13.9,74.5,1023.72,0,0,0,0,0.026131
2018/10/03 02:27:00.000,n,129,3.6,2.88,4.32,13.9,74.9,1023.72,0,0,0,0,0.028725
2018/10/03 02:28:00.006,n,225,2.88,2.52,3.24,13.8,75,1023.72,0,0,0,0,0.027847
2018/10/03 02:29:00.004,n,150,3.6,3.24,4.32,13.8,75.1,1023.62,0,0,0,0,0.027847
2018/10/03 02:30:00.000,n,169,1.44,1.08,1.44,13.8,75.2,1023.72,0,0,0,0,0.025253
2018/10/03 02:31:00.013,n,175,2.52,2.52,2.88,13.8,75.4,1023.72,0,0,0,0,0.026131
2018/10/03 02:32:00.010,n,172,1.08,0.36,1.44,13.8,75.5,1023.62,0,0,0,0,0.023499
2018/10/03 02:33:00.007,n,111,1.08,0.36,1.8,13.8,75.6,1023.72,0,0,0,0,0.026131
2018/10/03 02:34:00.000,n,137,0.36,0.36,1.08,13.8,75.7,1023.72,0,0,0,0,0.02697
2018/10/03 02:35:00.001,n,199,1.44,1.08,2.16,13.8,75.5,1023.72,0,0,0,0,0.025253
2018/10/03 02:36:00.000,n,121,1.44,1.44,1.44,13.8,75.6,1023.62,0,0,0,0,0.024376
2018/10/03 02:37:00.000,n,136,1.8,1.44,2.16,13.8,75.6,1023.62,0,0,0,0,0.021744
2018/10/03 02:38:00.000,n,138,2.52,2.16,2.88,13.8,75.6,1023.62,0,0,0,0,0.031319
2018/10/03 02:39:00.007,n,168,3.24,2.88,3.96,13.7,75.7,1023.62,0,0,0,0,0.031395
2018/10/03 02:40:00.000,n,166,1.8,1.08,2.16,13.7,75.7,1023.62,0,0,0,0,0.041847
2018/10/03 02:41:00.013,n,186,1.8,1.44,2.16,13.7,75.8,1023.62,0,0,0,0,0.034027
2018/10/03 02:42:00.010,n,172,1.08,0.72,1.44,13.7,75.8,1023.62,0,0,0,0,0.034027
2018/10/03 02:43:00.000,n,281,2.52,1.44,3.24,13.7,76.1,1023.62,0,0,0,0,0.034866
2018/10/03 02:44:00.000,n,240,1.44,1.08,1.8,13.7,76.3,1023.72,0,0,0,0,0.033112
2018/10/03 02:45:00.000,n,130,2.88,2.52,3.24,13.7,75.8,1023.72,0,0,0,0,0.031395
2018/10/03 02:46:00.000,n,80,1.08,0.72,1.44,13.7,76,1023.72,0,0,0,0,0.033112
2018/10/03 02:47:00.000,n,141,2.52,1.8,2.52,13.7,75.9,1023.72,0,0,0,0,0.035744
2018/10/03 02:48:00.011,n,143,2.88,2.52,3.24,13.7,76,1023.72,0,0,0,0,0.028763
2018/10/03 02:49:00.008,n,138,3.24,2.88,3.6,13.6,76,1023.72,0,0,0,0,0.028763
2018/10/03 02:50:00.005,n,149,2.16,1.44,2.88,13.6,76.2,1023.72,0,0,0,0,0.028763
2018/10/03 02:51:00.002,n,179,3.6,3.6,3.96,13.6,76.3,1023.72,0,0,0,0,0.033112
2018/10/03 02:52:00.000,n,161,2.52,2.16,2.88,13.6,76.3,1023.72,0,0,0,0,0.031395
2018/10/03 02:53:00.000,n,157,2.16,1.08,2.88,13.5,76.4,1023.72,0,0,0,0,0.02964
2018/10/03 02:54:00.000,n,140,1.44,0.36,3.24,13.5,76.4,1023.72,0,0,0,0,0.031395
2018/10/03 02:55:00.000,n,146,2.88,2.52,4.32,13.5,76.4,1023.72,0,0,0,0,0.02964
2018/10/03 02:56:00.006,n,161,2.16,1.8,2.52,13.5,76.5,1023.72,0,0,0,0,0.034866
2018/10/03 02:57:00.003,n,179,2.16,1.8,2.88,13.4,76.6,1023.62,0,0,0,0,0.033112
2018/10/03 02:58:00.000,n,163,2.16,1.8,2.52,13.4,76.8,1023.62,0,0,0,0,0.031395
2018/10/03 02:59:00.013,n,197,2.16,1.44,2.88,13.4,76.9,1023.62,0,0,0,0,0.026169
2018/10/03 03:00:00.011,n,160,2.88,1.8,3.24,13.4,76.9,1023.62,0,0,0,0,0.032234
2018/10/03 03:01:00.000,n,161,2.16,2.16,2.52,13.4,76.9,1023.62,0,0,0,0,0.027046
2018/10/03 03:02:00.000,n,183,3.24,2.88,3.6,13.4,76.8,1023.52,0,0,0,0,0.025291
2018/10/03 03:03:00.001,n,135,2.16,1.8,2.16,13.4,76.9,1023.52,0,0,0,0,0.031395
2018/10/03 03:04:00.000,n,219,1.08,0.72,1.08,13.4,76.9,1023.52,0,0,0,0,0.026169
2018/10/03 03:05:00.000,n,81,0.36,0.36,0.36,13.4,77,1023.52,0,0,0,0,0.023537
2018/10/03 03:06:00.009,n,132,1.44,1.44,1.8,13.4,77,1023.52,0,0,0,0,0.031395
2018/10/03 03:07:00.006,n,148,3.24,2.88,3.6,13.4,77,1023.52,0,0,0,0,0.031395
2018/10/03 03:08:00.003,n,143,1.8,1.44,2.16,13.4,77,1023.52,0,0,0,0,0.025291
2018/10/03 03:09:00.000,n,77,0.72,0,1.08,13.4,77.1,1023.52,0,0,0,0,0.02182
2018/10/03 03:10:00.000,n,140,1.44,1.44,1.8,13.4,76.9,1023.52,0,0,0,0,0.028763
2018/10/03 03:11:00.000,n,121,1.8,1.44,2.16,13.4,76.9,1023.52,0,0,0,0,0.022697
2018/10/03 03:12:00.000,n,155,2.52,2.52,2.52,13.4,77,1023.52,0,0,0,0,0.025291
2018/10/03 03:13:00.004,n,142,2.16,1.8,2.52,13.4,77.1,1023.52,0,0,0,0,0.025291
2018/10/03 03:14:00.001,n,141,1.44,1.08,1.8,13.3,77.3,1023.42,0,0,0,0,0.023537
2018/10/03 03:15:00.000,n,140,1.44,0.72,1.8,13.3,77.3,1023.42,0,0,0,0,0.023537
2018/10/03 03:16:00.012,n,176,0.72,0.36,1.08,13.3,77.2,1023.42,0,0,0,0,0.024414
2018/10/03 03:17:00.009,n,238,1.08,0.72,2.16,13.3,77.4,1023.42,0,0,0,0,0.024414
2018/10/03 03:18:00.006,n,126,0.36,0.36,0.72,13.3,77.5,1023.42,0,0,0,0,0.023537
2018/10/03 03:19:00.000,n,103,0.72,0.36,1.08,13.3,77.5,1023.42,0,0,0,0,0.022697
2018/10/03 03:20:00.000,n,115,1.08,0.72,1.44,13.3,77.6,1023.42,0,0,0,0,0.02182
2018/10/03 03:21:00.000,n,268,0.72,0,0.72,13.3,77.5,1023.42,0,0,0,0,0.020065
2018/10/03 03:22:00.000,n,301,0.72,0,1.08,13.3,77.6,1023.42,0,0,0,0,0.019188
2018/10/03 03:23:00.008,n,142,1.08,0.72,1.44,13.3,77.8,1023.42,0,0,0,0,0.020065
2018/10/03 03:24:00.006,n,109,2.16,1.8,2.52,13.4,77.6,1023.42,0,0,0,0,0.024414
2018/10/03 03:25:00.003,n,155,1.44,1.08,1.44,13.4,77.6,1023.42,0,0,0,0,0.018311
2018/10/03 03:26:00.000,n,115,2.16,1.44,2.52,13.4,77.6,1023.42,0,0,0,0,0.020065
2018/10/03 03:27:00.014,n,145,3.96,3.6,4.32,13.3,77.6,1023.42,0,0,0,0,0.025291
2018/10/03 03:28:00.000,n,199,2.16,1.08,3.24,13.3,77.6,1023.42,0,0,0,0,0.029602
2018/10/03 03:29:00.000,n,160,2.88,1.44,4.68,13.3,77.7,1023.42,0,0,0,0,0.033112
2018/10/03 03:30:00.001,n,240,2.16,1.08,3.24,13.3,77.6,1023.42,0,0,0,0,0.033112
2018/10/03 03:31:00.000,n,157,1.8,0.72,2.52,13.3,77.7,1023.42,0,0,0,0,0.035706
2018/10/03 03:32:00.000,n,155,5.4,5.04,5.76,13.2,77.6,1023.42,0,0,0,0,0.034828
2018/10/03 03:33:00.010,n,151,3.96,3.24,4.32,13.2,77.7,1023.42,0,0,0,0,0.034828
2018/10/03 03:34:00.007,n,155,5.04,4.68,5.4,13.2,77.7,1023.42,0,0,0,0,0.032234
2018/10/03 03:35:00.004,n,151,5.76,5.4,6.84,13.1,77.6,1023.32,0,0,0,0,0.033112
2018/10/03 03:36:00.001,n,135,6.12,5.04,6.84,13.1,77.6,1023.32,0,0,0,0,0.032234
2018/10/03 03:37:00.000,n,161,6.12,5.04,6.48,13,77.5,1023.32,0,0,0,0,0.033112
2018/10/03 03:38:00.000,n,171,4.68,3.96,5.76,13,77.7,1023.32,0,0,0,0,0.033951
2018/10/03 03:39:00.000,n,176,5.76,3.96,6.84,12.9,77.8,1023.32,0,0,0,0,0.032234
2018/10/03 03:40:00.006,n,163,4.68,3.96,4.68,12.9,77.8,1023.42,0,0,0,0,0.031319
2018/10/03 03:41:00.003,n,204,4.32,3.24,4.68,12.9,78,1023.42,0,0,0,0,0.031319
2018/10/03 03:42:00.000,n,180,3.96,3.24,4.32,12.9,78,1023.42,0,0,0,0,0.033112
2018/10/03 03:43:00.000,n,248,1.08,0.36,1.8,12.9,78,1023.42,0,0,0,0,0.029602
2018/10/03 03:44:00.009,n,274,0.36,0,1.08,12.9,78.2,1023.42,0,0,0,0,0.039177
2018/10/03 03:45:00.007,n,167,3.96,2.88,4.68,12.9,78,1023.42,0,0,0,0,0.036583
2018/10/03 03:46:00.000,n,152,1.44,1.08,1.8,12.9,78,1023.42,0,0,0,0,0.027885
2018/10/03 03:47:00.000,n,238,3.24,2.88,3.96,13,78,1023.42,0,0,0,0,0.034828
2018/10/03 03:48:00.000,n,185,1.44,1.08,1.8,13,77.9,1023.52,0,0,0,0,0.030479
2018/10/03 03:49:00.000,n,304,1.08,0.36,1.44,13,78.1,1023.42,0,0,0,0,0.034828
2018/10/03 03:50:00.008,n,138,1.8,1.08,2.88,13,77.9,1023.42,0,0,0,0,0.025253
2018/10/03 03:51:00.007,n,135,2.88,2.52,3.6,13,77.7,1023.42,0,0,0,0,0.031319
2018/10/03 03:52:00.003,n,140,3.96,3.6,4.32,12.9,77.6,1023.42,0,0,0,0,0.029602
2018/10/03 03:53:00.001,n,173,5.04,4.68,5.76,12.9,77.6,1023.42,0,0,0,0,0.033951
2018/10/03 03:54:00.014,n,162,3.96,3.24,4.68,12.9,77.6,1023.42,0,0,0,0,0.033951
2018/10/03 03:55:00.000,n,156,6.12,6.12,6.48,12.9,77.5,1023.42,0,0,0,0,0.027885
2018/10/03 03:56:00.000,n,173,5.04,4.68,5.4,12.9,77.6,1023.42,0,0,0,0,0.036583
2018/10/03 03:57:00.005,n,151,5.4,3.24,6.48,12.8,77.6,1023.42,0,0,0,0,0.027885
2018/10/03 03:58:00.002,n,179,5.4,5.04,5.76,12.8,77.7,1023.42,0,0,0,0,0.029602
2018/10/03 03:59:00.000,n,101,0.72,0.36,1.44,12.8,77.8,1023.42,0,0,0,0,0.031319
2018/10/03 04:00:00.000,n,204,5.4,5.04,6.12,12.8,77.7,1023.42,0,0,0,0,0.029602
2018/10/03 04:01:00.009,n,207,3.6,3.24,3.96,12.8,77.8,1023.42,0,0,0,0,0.028763
2018/10/03 04:02:00.008,n,215,3.24,2.52,4.32,12.8,77.8,1023.42,0,0,0,0,0.030479
2018/10/03 04:03:00.004,n,167,5.04,0.36,11.52,12.8,77.7,1023.32,0,0,0,0,0.022621
2018/10/03 04:04:00.002,n,200,2.52,1.8,3.6,12.8,77.7,1023.32,0,0,0,0,0.02697
2018/10/03 04:05:00.000,n,174,5.04,3.6,7.2,12.8,77.5,1023.32,0,0,0,0,0.026131
2018/10/03 04:06:00.000,n,171,4.32,3.6,4.68,12.8,77.4,1023.32,0,0,0,0,0.028763
2018/10/03 04:07:00.000,n,187,6.48,4.68,7.56,12.8,77.5,1023.32,0,0,0,0,0.028763
2018/10/03 04:08:00.006,n,165,2.88,2.16,3.6,12.8,77.4,1023.32,0,0,0,0,0.021782
2018/10/03 04:09:00.003,n,152,6.48,5.4,8.64,12.8,77.5,1023.32,0,0,0,0,0.02697
2018/10/03 04:10:00.001,n,177,9.36,7.56,10.440002,12.8,77.6,1023.32,0,0,0,0,0.027885
2018/10/03 04:11:00.013,n,167,3.96,3.24,4.68,12.8,77.5,1023.32,0,0,0,0,0.025253
2018/10/03 04:12:00.011,n,180,3.24,1.44,6.12,12.8,77.4,1023.32,0,0,0,0,0.024376
2018/10/03 04:13:00.000,n,172,9,8.64,9.36,12.8,77.5,1023.32,0,0,0,0,0.021782
2018/10/03 04:14:00.000,n,141,6.12,5.04,6.48,12.8,77.4,1023.32,0,0,0,0,0.020905
2018/10/03 04:15:00.001,n,211,1.08,0.36,1.8,12.9,77.5,1023.32,0,0,0,0,0.033073
2018/10/03 04:16:00.000,n,182,1.44,1.44,2.16,12.9,77.3,1023.32,0,0,0,0,0.033989
2018/10/03 04:17:00.000,n,106,3.24,1.44,4.32,12.9,77.4,1023.32,0,0,0,0,0.038338
2018/10/03 04:18:00.000,n,159,3.6,3.24,3.96,12.9,77.3,1023.32,0,0,0,0,0.031357
2018/10/03 04:19:00.007,n,214,2.52,1.44,2.88,12.9,77.3,1023.42,0,0,0,0,0.033989
2018/10/03 04:20:00.005,n,199,0.72,0.36,0.72,12.9,77.3,1023.42,0,0,0,0,0.038338
2018/10/03 04:21:00.002,n,144,2.88,1.44,3.6,12.9,77.4,1023.42,0,0,0,0,0.035706
2018/10/03 04:22:00.000,n,291,2.16,0.72,3.24,12.9,77.7,1023.42,0,0,0,0,0.03746
2018/10/03 04:23:00.000,n,132,2.52,2.16,3.24,13,77.4,1023.42,0,0,0,0,0.033073
2018/10/03 04:24:00.000,n,112,2.52,0.72,4.32,13,77.3,1023.42,0,0,0,0,0.031357
2018/10/03 04:25:00.006,n,269,2.16,1.8,2.52,13,77.1,1023.42,0,0,0,0,0.036583
2018/10/03 04:26:00.004,n,116,4.68,4.32,5.4,13,77,1023.42,0,0,0,0,0.030518
2018/10/03 04:27:00.001,n,107,1.08,0.72,1.44,13,77,1023.42,0,0,0,0,0.039215
2018/10/03 04:28:00.000,n,231,4.68,2.88,5.76,13,77.2,1023.42,0,0,0,0,0.030518
2018/10/03 04:29:00.012,n,285,2.16,1.44,3.24,13,77,1023.42,0,0,0,0,0.02964
2018/10/03 04:30:00.009,n,109,2.16,1.8,2.88,13,77.1,1023.42,0,0,0,0,0.039215
2018/10/03 04:31:00.000,n,57,2.52,1.8,2.88,13,77,1023.42,0,0,0,0,0.028725
2018/10/03 04:32:00.000,n,155,5.4,5.04,6.12,13,76.6,1023.42,0,0,0,0,0.030518
2018/10/03 04:33:00.000,n,117,3.24,2.88,3.96,13,76.7,1023.42,0,0,0,0,0.034866
2018/10/03 04:34:00.000,n,81,2.52,2.16,2.52,12.9,76.8,1023.42,0,0,0,0,0.028725
2018/10/03 04:35:00.000,n,152,2.52,2.16,2.52,12.9,76.8,1023.42,0,0,0,0,0.033989
2018/10/03 04:36:00.008,n,44,1.44,1.08,1.8,12.9,76.9,1023.42,0,0,0,0,0.02964
2018/10/03 04:37:00.005,n,112,1.8,1.08,2.52,12.9,77.1,1023.42,0,0,0,0,0.027885
2018/10/03 04:38:00.002,n,294,0.36,0.36,0.36,12.9,77.1,1023.42,0,0,0,0,0.031357
2018/10/03 04:39:00.001,n,146,2.52,1.08,3.24,12.9,77.1,1023.42,0,0,0,0,0.028725
2018/10/03 04:40:00.000,n,17,0.72,0.36,0.72,12.9,77.1,1023.42,0,0,0,0,0.030518
2018/10/03 04:41:00.000,n,282,1.8,1.44,2.88,12.9,77,1023.52,0,0,0,0,0.031357
2018/10/03 04:42:00.000,n,333,2.16,1.08,3.24,12.9,77.5,1023.52,0,0,0,0,0.033073
2018/10/03 04:43:00.006,n,77,0.36,0,1.44,12.9,77.3,1023.52,0,0,0,0,0.032234
2018/10/03 04:44:00.004,n,153,1.8,1.44,1.8,12.9,77.4,1023.52,0,0,0,0,0.030518
2018/10/03 04:45:00.001,n,129,3.24,2.88,3.6,12.9,77.3,1023.52,0,0,0,0,0.02964
2018/10/03 04:46:00.000,n,195,2.88,2.16,3.6,12.8,77.4,1023.42,0,0,0,0,0.034866
2018/10/03 04:47:00.012,n,113,3.24,3.24,4.32,12.8,77.3,1023.42,0,0,0,0,0.032234
2018/10/03 04:48:00.010,n,186,5.04,4.32,5.76,12.8,77.4,1023.42,0,0,0,0,0.030518
2018/10/03 04:49:00.000,n,110,3.6,2.88,3.96,12.8,77.5,1023.42,0,0,0,0,0.02964
2018/10/03 04:50:00.000,n,158,3.96,3.24,5.04,12.8,77.4,1023.52,0,0,0,0,0.031357
2018/10/03 04:51:00.001,n,133,0.72,0,1.44,12.8,77.6,1023.52,0,0,0,0,0.02964
2018/10/03 04:52:00.000,n,130,3.24,2.52,3.96,12.8,77.7,1023.52,0,0,0,0,0.031357
2018/10/03 04:53:00.000,n,116,2.88,1.44,4.32,12.8,77.7,1023.52,0,0,0,0,0.032234
2018/10/03 04:54:00.008,n,145,2.52,2.52,2.88,12.7,77.7,1023.42,0,0,0,0,0.031357
2018/10/03 04:55:00.006,n,309,2.52,1.44,4.68,12.7,77.8,1023.42,0,0,0,0,0.032234
2018/10/03 04:56:00.003,n,5,2.52,1.08,4.32,12.7,77.8,1023.42,0,0,0,0,0.033989